Location: Schommer Observatory
(40.5200°N, 74.4500°W)
Time: 03:47:31
(UTC-04:00)

Tiangong 2 - Pass Details

Date: 13 October 2017
Orbit: 388 x 391 km, 42.8° (Epoch: 22 October)

Event Time Altitude Azimuth Distance (km) Brightness Sun altitude
Exits shadow 05:53:31 31° 291° (WNW) 706 1.9 -14.7°
Maximum altitude 05:54:45 56° 356° (N) 471 1.4 -14.5°
Drops below altitude 10° 05:57:55 10° 75° (ENE) 1,422 5.3 -13.9°
Sets 06:00:01 0° 80° (E) 2,279 6.9 -13.5°
